This is the latest recevied weather packets stored in our database for station/object SV2HZE-18. If no packets are shown the sender has not sent any weather packets the latest 10 day(s).
| Time | Temp. | Humidity | Pressure | Rain* | Wind** | Luminosity | Snow |
|---|---|---|---|---|---|---|---|
| 1787882846 | 25.56° C | 63% | 1017.2 hPa | - | - | - | - |
| 1787881945 | 25.56° C | 60% | 1017.2 hPa | - | - | - | - |
| 1787881038 | 25.56° C | 61% | 1017.2 hPa | - | - | - | - |
| 1787880137 | 25.56° C | 63% | 1017.1 hPa | - | - | - | - |
| 1787879244 | 25.56° C | 61% | 1017.2 hPa | - | - | - | - |
| 1787878336 | 25.56° C | 60% | 1017.3 hPa | - | - | - | - |
| 1787877436 | 25.56° C | 58% | 1017.3 hPa | - | - | - | - |
| 1787876536 | 26.11° C | 58% | 1017.3 hPa | - | - | - | - |
| 1787875636 | 26.11° C | 57% | 1017.1 hPa | - | - | - | - |
| 1787873836 | 26.11° C | 57% | 1017.2 hPa | - | - | - | - |
| 1787872936 | 26.11° C | 57% | 1017.3 hPa | - | - | - | - |
| 1787872036 | 26.11° C | 56% | 1017.4 hPa | - | - | - | - |
| 1787871135 | 26.67° C | 55% | 1017.5 hPa | - | - | - | - |
| 1787869335 | 26.67° C | 54% | 1017.5 hPa | - | - | - | - |
| 1787867535 | 26.67° C | 54% | 1017.4 hPa | - | - | - | - |
| 1787866635 | 27.22° C | 54% | 1017.4 hPa | - | - | - | - |
| 1787865735 | 27.22° C | 55% | 1017.3 hPa | - | - | - | - |
| 1787864835 | 27.22° C | 58% | 1017.3 hPa | - | - | - | - |
| 1787863934 | 27.22° C | 53% | 1017.1 hPa | - | - | - | - |
| 1787863034 | 27.22° C | 53% | 1017 hPa | - | - | - | - |
| 1787862134 | 27.22° C | 54% | 1016.8 hPa | - | - | - | - |
| 1787861234 | 27.22° C | 52% | 1017 hPa | - | - | - | - |
| 1787860332 | 27.22° C | 53% | 1016.9 hPa | - | - | - | - |
| 1787859432 | 27.22° C | 54% | 1016.8 hPa | - | - | - | - |
| 1787858532 | 27.78° C | 56% | 1016.8 hPa | - | - | - | - |
* Rain since midnight (hover to see other rain measurements)
** Current wind speed in m/s (hover to see current wind gust speed)